Trenton, NJ

6:39 AM EDT on May 28, 2018 (GMT -0400)
Trenton Mercer

Weather History for KTTN - December, 2012

Change the Weather History Date:

Saturday, December 29, 2012

  Actual Average Record
Temperature  
Mean Temperature 30 °F 32 °F  
Max Temperature 33 °F 40 °F 73 °F (1984)
Min Temperature 27 °F 24 °F -4 °F (1917)
Degree Days  
Heating Degree Days 35 33  
Month to date heating degree days 687 853  
Since 1 July heating degree days 1694 1829  
Cooling Degree Days 0 0  
Month to date cooling degree days 0 0  
Year to date cooling degree days 1234 965  
Moisture  
Dew Point 27 °F    
Average Humidity 88    
Maximum Humidity 100    
Minimum Humidity 75    
Precipitation  
Precipitation 0.21 in 0.08 in 1.95 in (1901)
Month to date precipitation 4.23 3.53  
Year to date precipitation 37.46 46.27  
Sea Level Pressure  
Sea Level Pressure 29.68 in    
Wind  
Wind Speed 6 mph (NNE)    
Max Wind Speed 16 mph    
Max Gust Speed 26 mph    
Visibility 6 miles    
Events Fog , Rain , Snow    
T = Trace of Precipitation, MM = Missing Value Source: NWS Daily Summary

Daily Weather History Graph

Daily Weather History Graph

Search for Another Location

Airport or City:

Astronomy

Dec. 29, 2012 Rise Set
Actual Time 7:21 AM EST 4:41 PM EST
Civil Twilight 6:50 AM EST 5:12 PM EST
Nautical Twilight 6:16 AM EST 5:46 PM EST
Astronomical Twilight 5:43 AM EST 6:19 PM EST
Moon 6:12 PM EST (12/29) 7:53 AM EST (12/29)
Length of Visible Light 10h 21m
Length of Day
9h 20m
Full, 98% of the Moon is Illuminated
Dec 29
Full
Jan 4
Last Quarter
Jan 11
New
Jan 18
First Quarter
Jan 26
Full

Hourly Weather History & Observations

Time (EST) Temp. Windchill Dew Point Humidity Pressure Visibility Wind Dir Wind Speed Gust Speed Precip Events Conditions
12:53 AM 27.0 °F 21.6 °F 21.9 °F 81% 30.02 in 10.0 mi North 4.6 mph - N/A   Clear
1:53 AM 28.9 °F 23.9 °F 21.9 °F 75% 30.02 in 10.0 mi North 4.6 mph - N/A   Clear
2:53 AM 28.9 °F - 21.9 °F 75% 30.01 in 10.0 mi Calm Calm - N/A   Clear
3:53 AM 28.9 °F 25.2 °F 21.9 °F 75% 29.99 in 10.0 mi NNE 3.5 mph - N/A   Clear
4:53 AM 28.9 °F - 23.0 °F 78% 29.96 in 10.0 mi Calm Calm - N/A   Partly Cloudy
5:53 AM 28.9 °F 25.2 °F 23.0 °F 78% 29.95 in 10.0 mi South 3.5 mph - N/A   Overcast
6:53 AM 30.0 °F 26.5 °F 24.1 °F 79% 29.90 in 10.0 mi East 3.5 mph - N/A   Overcast
7:53 AM 30.0 °F 26.5 °F 25.0 °F 82% 29.88 in 10.0 mi East 3.5 mph - N/A   Overcast
8:53 AM 30.9 °F 24.3 °F 25.0 °F 79% 29.83 in 10.0 mi ENE 6.9 mph - N/A   Overcast
9:42 AM 32.0 °F 25.6 °F 26.6 °F 80% 29.80 in 9.0 mi ENE 6.9 mph - 0.00 in Snow Light Snow
9:53 AM 32.0 °F 26.4 °F 27.0 °F 82% 29.80 in 9.0 mi ENE 5.8 mph - 0.00 in   Overcast
10:53 AM 32.0 °F 24.2 °F 27.0 °F 82% 29.75 in 5.0 mi ENE 9.2 mph - 0.00 in Snow Light Snow
11:04 AM 32.0 °F 24.8 °F 28.4 °F 87% 29.75 in 2.0 mi ENE 8.1 mph - 0.00 in Snow Light Snow
11:24 AM 32.0 °F 26.4 °F 28.4 °F 87% 29.74 in 1.2 mi ENE 5.8 mph - 0.00 in Snow Light Snow
11:32 AM 32.0 °F 26.4 °F 28.4 °F 87% 29.73 in 0.5 mi ENE 5.8 mph - 0.01 in Fog , Snow Snow
11:42 AM 30.2 °F 23.4 °F 28.4 °F 93% 29.72 in 0.2 mi East 6.9 mph - 0.03 in Fog , Snow Heavy Snow
11:53 AM 30.9 °F 24.3 °F 30.0 °F 96% 29.69 in 0.2 mi East 6.9 mph - 0.05 in Fog , Snow Snow
12:53 PM 32.0 °F 26.4 °F 30.0 °F 92% 29.65 in 0.8 mi East 5.8 mph - 0.07 in Snow Light Snow
1:15 PM 32.0 °F 26.4 °F 30.2 °F 93% 29.63 in 1.5 mi ENE 5.8 mph - 0.04 in Snow Light Snow
1:17 PM 32.0 °F 25.6 °F 30.2 °F 93% 29.62 in 2.0 mi NE 6.9 mph - 0.04 in   Overcast
1:30 PM 32.0 °F 26.4 °F 30.2 °F 93% 29.61 in 3.0 mi NE 5.8 mph - 0.05 in   Overcast
1:43 PM 32.0 °F 26.4 °F 30.2 °F 93% 29.61 in 3.0 mi NE 5.8 mph - 0.05 in   Overcast
1:53 PM 32.0 °F 27.5 °F 30.0 °F 92% 29.60 in 3.0 mi NE 4.6 mph - 0.05 in   Overcast
1:57 PM 32.0 °F 27.5 °F 30.2 °F 93% 29.60 in 2.5 mi NNE 4.6 mph - 0.01 in   Overcast
2:12 PM 32.0 °F 25.6 °F 30.2 °F 93% 29.60 in 3.0 mi North 6.9 mph - 0.02 in   Overcast
2:32 PM 32.0 °F 26.4 °F 30.2 °F 93% 29.59 in 3.0 mi NNE 5.8 mph - 0.02 in Rain Light Freezing Rain
2:53 PM 32.0 °F 24.8 °F 30.0 °F 92% 29.57 in 4.0 mi North 8.1 mph - 0.02 in Rain Light Freezing Rain
3:50 PM 32.0 °F 24.8 °F 28.4 °F 87% 29.54 in 5.0 mi North 8.1 mph - 0.01 in   Overcast
3:53 PM 32.0 °F 24.2 °F 28.9 °F 88% 29.53 in 5.0 mi North 9.2 mph - 0.01 in   Overcast
4:53 PM 32.0 °F 25.6 °F 30.0 °F 92% 29.52 in 5.0 mi North 6.9 mph - 0.01 in Snow Light Snow
6:21 PM 32.0 °F 27.5 °F 30.2 °F 93% 29.52 in 5.0 mi North 4.6 mph - 0.00 in Snow Light Snow
6:42 PM 32.0 °F 26.4 °F 30.2 °F 93% 29.53 in 8.0 mi NW 5.8 mph - 0.00 in   Overcast
6:53 PM 32.0 °F 27.5 °F 30.0 °F 92% 29.52 in 8.0 mi NNW 4.6 mph - 0.00 in   Overcast
7:09 PM 32.0 °F 26.4 °F 28.4 °F 87% 29.53 in 8.0 mi NW 5.8 mph - N/A   Overcast
7:38 PM 30.2 °F 21.9 °F 28.4 °F 93% 29.54 in 8.0 mi NNW 9.2 mph - N/A   Overcast
7:53 PM 30.9 °F 23.5 °F 28.0 °F 89% 29.54 in 9.0 mi NNW 8.1 mph - N/A   Overcast
8:16 PM 30.2 °F 23.4 °F 26.6 °F 86% 29.56 in 7.0 mi NNW 6.9 mph - N/A   Overcast
8:33 PM 30.2 °F 21.9 °F 26.6 °F 86% 29.56 in 8.0 mi NNW 9.2 mph - N/A   Mostly Cloudy
8:53 PM 30.0 °F 23.2 °F 27.0 °F 88% 29.56 in 10.0 mi Variable 6.9 mph - N/A   Mostly Cloudy
9:04 PM 30.2 °F 22.6 °F 26.6 °F 86% 29.58 in 10.0 mi NNW 8.1 mph - N/A   Overcast
9:23 PM 30.2 °F 24.3 °F 26.6 °F 86% 29.58 in 10.0 mi NNW 5.8 mph - N/A   Overcast
9:53 PM 30.0 °F 22.4 °F 27.0 °F 88% 29.59 in 10.0 mi NW 8.1 mph - N/A   Overcast
10:53 PM 32.0 °F 23.6 °F 26.1 °F 79% 29.62 in 10.0 mi NW 10.4 mph 18.4 mph N/A   Overcast
11:53 PM 32.0 °F 23.0 °F 25.0 °F 75% 29.64 in 10.0 mi NW 11.5 mph - N/A   Overcast